Preview of NWS' New Version of Forecast
This preview is not operational and should not be used for support decisions.

Regional Weather Roundup (RWR)

Issued by Goodland, KS (GLD)

                            
617 
ASUS43 KGLD 212308
RWRGLD

GOODLAND FORECAST AREA HOURLY WEATHER ROUNDUP
NATIONAL WEATHER SERVICE GOODLAND KS
500 PM MDT THU JUN 21 2018

...OFFICIAL OBSERVATIONS...
  
CITY           SKY/WX    TMP DP  RH WIND       PRES   REMARKS
GOODLAND KS    SUNNY     81  53  37 N9        30.03F                  
HILL CITY KS   SUNNY     83  52  34 N16G26    29.95S                  
IMPERIAL NEB   SUNNY     80  50  34 N12G23    30.02F                  
MCCOOK NEB     MOSUNNY   81  51  35 N18G25    29.98S                  
AKRON CO       SUNNY     79  52  38 NE8       30.08F                  
BURLINGTON CO  SUNNY     82  51  34 N10       30.05F                  
LIMON CO       SUNNY     83  42  23 VRB5G18   30.09S                  
$$

...UNOFFICIAL OBSERVATIONS...
  
CITY           SKY/WX    TMP DP  RH WIND       PRES   REMARKS
COLBY KS       SUNNY     79  45  29 N16       30.02F                  
NORTON KS      SUNNY     81  50  34 N20       29.95                   
SHARON SPRINGS   N/A     81  53  37 CALM        N/A                   
KIT CARSON CO    N/A     86  54  33 MISG        N/A                   
YUMA CO        FAIR      77   9   7 E9        30.05F                  
$$